Tracking 28790 objects as of 18-Apr-2024
HD Live streaming from Space Station
objects crossing your sky now

INTELSAT 906

Track INTELSAT 906 now!
INTELSAT 906 is classified as:


NORAD ID: 27513
Int'l Code: 2002-041A
Perigee: 35,780.6 km
Apogee: 35,806.7 km
Inclination: 3.8 °
Period: 1,436.1 minutes
Semi major axis: 42164 km
RCS: 22.5892 m2 (large)
Launch date: September 6, 2002
Source: International Telecommunications Satellite Organization (ITSO)
Launch site: FRENCH GUIANA (FRGUI)

72 C-band, 22 Ku-band, broadcasting, business services, direct-to-home TV broadcasting, telecommunications, VSAT networks.
Your satellite tracking list
Your tracking list is empty




NASA's NSSDC Master Catalog

Two Line Element Set (TLE):
1 27513U 02041A   24108.83107684  .00000010  00000-0  00000-0 0  9998
2 27513   3.7824  82.5786 0003095 310.7215 176.4685  1.00272236 79103
Source of the keplerian elements: AFSPC